Volver al catálogo

STARLINK-32193

ActivoComunicacionesVLEO
NORAD 60428·PAYLOAD·🇺🇸 United States

Lanzado Aug 12, 2024 desde Cape Canaveral Space Force Station

Loading…

Próximos Pases (próximas 24 horas)

TLE

ActualizadoSource: CelesTrak SupGP

Época: Sep 14, 2026, 21:22 UTC

1 60428C 24144D   26257.89076389  .00040080  00000+0  11845-2 0  2576
2 60428  53.1595  55.7487 0001251  82.7231 249.9840 15.34360490    10

Sigue STARLINK-32193 en tiempo real con AllMySat

Download on the App Store